Location: Ferchesar
(52.6477°N, 12.4298°E)
Time: 21:43:23
(UTC+01:00)

A-11 Canister half - Visible Passes

Search period start: 03 December 2021 00:00
Search period end: 13 December 2021 00:00
Orbit: 1516 x 1684 km, 47.2° (Epoch: 03 December)

Date Brightness Start Highest point End Pass type
(mag) Time Alt. Az. Time Alt. Az. Time Alt. Az.
03 Dec 11.0 06:39:11 10° SSW 06:47:11 30° SE 06:55:23 10° E visible
04 Dec 10.9 06:16:32 10° SSW 06:24:21 29° SE 06:32:21 10° E visible
05 Dec 10.9 05:53:55 10° S 06:01:32 27° SE 06:09:20 10° E visible
06 Dec 10.9 05:31:19 10° S 05:38:43 26° SE 05:46:18 10° E visible
07 Dec 10.9 05:08:45 10° S 05:15:55 24° SE 05:23:15 10° E visible
07 Dec 10.0 07:09:57 10° SW 07:19:11 52° SSE 07:28:43 10° E visible
08 Dec 10.9 04:46:12 10° S 04:53:07 23° SE 05:00:12 10° E visible
08 Dec 10.0 06:47:09 10° SW 06:56:18 50° SSE 07:05:46 10° E visible
09 Dec 10.9 04:23:41 10° S 04:30:19 22° SE 04:37:06 10° E visible
09 Dec 9.9 06:24:22 10° SW 06:33:26 49° SSE 06:42:49 10° E visible
10 Dec 10.9 04:01:11 10° S 04:07:31 20° SE 04:14:00 10° E visible
10 Dec 9.9 06:01:35 10° SW 06:10:34 47° SSE 06:19:51 10° E visible
11 Dec 10.9 03:38:44 10° S 03:44:45 19° SE 03:50:52 10° E visible
11 Dec 9.9 05:38:48 10° SW 05:47:42 45° SSE 05:56:54 10° E visible
12 Dec 10.8 03:18:01 14° SSE 03:21:58 18° SE 03:27:43 10° E visible
12 Dec 9.9 05:16:17 11° SW 05:24:50 44° SSE 05:33:57 10° E visible
12 Dec 9.6 07:19:23 10° WSW 07:28:53 64° S 07:38:44 10° E visible
